TimeEDT,TemperatureF,Dew PointF,Humidity,Sea Level PressureIn,VisibilityMPH,Wind Direction,Wind SpeedMPH,Gust SpeedMPH,PrecipitationIn,Events,Conditions,WindDirDegrees,DateUTC
12:53 AM,32.0,30.0,92,30.26,10.0,Calm,Calm,-,N/A,,Clear,0,2013-04-26 04:53:00
1:06 AM,30.2,30.2,100,30.26,1.8,NW,3.5,-,N/A,,Clear,320,2013-04-26 05:06:00
1:16 AM,30.2,30.2,100,30.26,3.0,NNE,3.5,-,N/A,,Clear,30,2013-04-26 05:16:00
1:53 AM,30.0,28.0,92,30.26,10.0,Calm,Calm,-,N/A,,Clear,0,2013-04-26 05:53:00
3:53 AM,39.9,30.9,70,30.28,10.0,NNW,6.9,-,N/A,,Clear,340,2013-04-26 07:53:00
4:53 AM,41.0,35.1,79,30.30,10.0,North,5.8,-,N/A,,Clear,10,2013-04-26 08:53:00
5:53 AM,37.9,35.1,89,30.31,10.0,NNE,5.8,-,N/A,,Clear,20,2013-04-26 09:53:00
6:53 AM,46.0,39.9,79,30.33,10.0,NE,6.9,-,N/A,,Clear,50,2013-04-26 10:53:00
7:53 AM,51.1,41.0,68,30.35,10.0,East,8.1,-,N/A,,Clear,90,2013-04-26 11:53:00
8:53 AM,55.0,39.0,55,30.36,10.0,East,10.4,-,N/A,,Clear,80,2013-04-26 12:53:00
9:53 AM,55.9,39.9,55,30.38,10.0,ENE,11.5,-,N/A,,Clear,60,2013-04-26 13:53:00
10:53 AM,55.9,39.9,55,30.39,10.0,ENE,8.1,-,N/A,,Clear,70,2013-04-26 14:53:00
11:53 AM,57.0,41.0,55,30.39,10.0,ENE,9.2,-,N/A,,Clear,60,2013-04-26 15:53:00
1:53 PM,59.0,39.9,49,30.38,10.0,Variable,4.6,-,N/A,,Clear,0,2013-04-26 17:53:00
2:53 PM,60.1,35.1,39,30.37,10.0,Variable,5.8,-,N/A,,Clear,0,2013-04-26 18:53:00
3:53 PM,57.9,37.0,46,30.37,10.0,SSE,6.9,-,N/A,,Clear,160,2013-04-26 19:53:00
4:53 PM,57.0,35.1,44,30.37,10.0,South,5.8,-,N/A,,Clear,180,2013-04-26 20:53:00
5:53 PM,54.0,39.9,59,30.38,10.0,ESE,6.9,-,N/A,,Clear,110,2013-04-26 21:53:00
6:53 PM,51.1,41.0,68,30.39,10.0,ESE,6.9,-,N/A,,Clear,120,2013-04-26 22:53:00
7:53 PM,46.9,41.0,80,30.41,10.0,East,4.6,-,N/A,,Clear,90,2013-04-26 23:53:00
8:53 PM,43.0,39.9,89,30.42,10.0,East,3.5,-,N/A,,Clear,90,2013-04-27 00:53:00
9:53 PM,42.1,39.9,92,30.41,10.0,East,3.5,-,N/A,,Clear,80,2013-04-27 01:53:00
10:53 PM,41.0,39.0,93,30.42,8.0,Calm,Calm,-,N/A,,Clear,0,2013-04-27 02:53:00
11:53 PM,37.9,37.0,97,30.41,7.0,Calm,Calm,-,N/A,,Mostly Cloudy,0,2013-04-27 03:53:00